CW3590 Weather Reports


Display with metric or nautical units.
time (UTC)temp
F
wind
direction
speed
MPH
gust
MPH
rain 1hr
in
rain 24hr
in
rain mn
in
humidity
%
barometer
mb
20260509132010 71 278 1.0 3.0 0.00 0.00 0.00 95 1009.5
20260509131013 71 262 0.0 4.0 0.00 0.00 0.00 95 1009.6
20260509130010 71 0 0.0 1.0 0.00 0.00 0.00 95 1009.5
20260509124010 71 188 0.0 4.0 0.00 0.00 0.00 95 1009.4
20260509123010 70 0 0.0 2.0 0.00 0.00 0.00 95 1009.3
20260509120010 70 170 0.0 2.0 0.00 0.00 0.00 95 1008.9
20260509115010 70 0 0.0 2.0 0.00 0.00 0.00 95 1008.6
20260509114010 70 162 0.0 2.0 0.00 0.00 0.00 94 1008.9
20260509113010 70 161 0.0 3.0 0.00 0.00 0.00 94 1008.5
20260509112010 70 160 1.0 2.0 0.00 0.00 0.00 94 1008.3
20260509111010 70 157 1.0 3.0 0.00 0.00 0.00 94 1008.1
20260509110010 70 135 1.0 4.0 0.00 0.00 0.00 94 1007.6
20260509104010 70 160 1.0 3.0 0.00 0.00 0.00 94 1007.8
20260509103010 70 154 1.0 3.0 0.00 0.00 0.00 94 1008.1
20260509102010 70 141 0.0 4.0 0.00 0.00 0.00 94 1007.9
20260509101011 70 0 0.0 3.0 0.00 0.00 0.00 93 1008.0
20260509100009 70 0 0.0 2.0 0.00 0.00 0.00 93 1008.3
20260509095011 70 143 0.0 3.0 0.00 0.00 0.00 93 1008.5
20260509094010 70 131 1.0 2.0 0.00 0.00 0.00 93 1008.4
20260509092009 70 0 0.0 2.0 0.00 0.00 0.00 93 1008.5
20260509091011 70 108 0.0 3.0 0.00 0.00 0.00 92 1008.3
20260509090010 70 123 1.0 3.0 0.00 0.00 0.00 92 1008.3
20260509085010 70 123 1.0 3.0 0.00 0.00 0.00 92 1008.3
20260509084010 70 118 0.0 2.0 0.00 0.00 0.00 92 1008.5
20260509083010 70 116 1.0 2.0 0.00 0.00 0.00 92 1008.8
20260509082011 70 113 1.0 2.0 0.00 0.00 0.00 91 1009.0
20260509081010 70 93 1.0 3.0 0.00 0.00 0.00 91 1009.1
20260509080009 70 0 0.0 2.0 0.00 0.00 0.00 90 1009.1
20260509075009 70 0 0.0 1.0 0.00 0.00 0.00 89 1009.5
20260509074010 70 0 0.0 0.0 0.00 0.00 0.00 89 1009.7
20260509073009 70 0 0.0 0.0 0.00 0.00 0.00 89 1009.5
20260509072011 70 0 0.0 0.0 0.00 0.00 0.00 89 1009.5
20260509071010 70 0 0.0 0.0 0.00 0.00 0.00 89 1009.5
20260509070010 70 93 0.0 2.0 0.00 0.00 0.00 89 1009.4
20260509065011 71 93 1.0 3.0 0.00 0.00 0.00 88 1009.4
20260509064010 71 85 1.0 3.0 0.00 0.00 0.00 89 1008.9
20260509063010 71 57 1.0 5.0 0.00 0.00 0.00 88 1009.5
20260509062011 71 101 1.0 3.0 0.00 0.00 0.00 88 1009.4
20260509061010 71 0 0.0 2.0 0.00 0.00 0.00 87 1009.8
20260509060010 71 0 0.0 0.0 0.00 0.00 0.00 87 1010.0
20260509055010 71 0 0.0 0.0 0.00 0.00 0.00 87 1010.2
20260509054010 71 0 0.0 0.0 0.00 0.00 0.00 87 1010.3
20260509053010 71 0 0.0 1.0 0.00 0.00 0.00 87 1010.4
20260509052010 71 0 0.0 1.0 0.00 0.00 0.00 87 1010.3
20260509051010 71 0 0.0 2.0 0.00 0.00 0.00 86 1010.1
20260509050011 72 0 0.0 1.0 0.00 0.00 0.00 86 1010.0
20260509045011 72 0 0.0 0.0 0.00 0.00 0.00 87 1009.8
20260509044009 72 0 0.0 1.0 0.00 0.00 0.00 87 1009.6
20260509043012 72 0 0.0 1.0 0.00 0.00 0.00 87 1009.6
20260509042009 72 0 0.0 1.0 0.00 0.00 0.00 86 1009.4
20260509041011 72 0 0.0 2.0 0.00 0.00 0.00 86 1009.4
20260509040010 72 134 0.0 3.0 0.00 0.00 0.00 86 1009.3
20260509035010 72 133 0.0 3.0 0.00 0.00 0.00 86 1009.0
20260509034009 72 0 0.0 1.0 0.00 0.00 0.00 86 1009.3
20260509030010 72 0 0.0 2.0 0.00 0.00 0.00 85 1008.8
20260509024009 72 0 0.0 0.0 0.00 0.00 0.00 85 1008.5
20260509023009 72 0 0.0 0.0 0.00 0.00 0.00 84 1008.5
20260509022009 72 0 0.0 0.0 0.00 0.00 0.00 84 1008.3
20260509021009 72 0 0.0 0.0 0.00 0.00 0.00 83 1008.2
20260509020010 72 0 0.0 2.0 0.00 0.00 0.00 83 1008.2
20260509015010 72 0 0.0 0.0 0.00 0.00 0.00 82 1008.0
20260509014010 73 0 0.0 0.0 0.00 0.00 0.00 82 1007.8
20260509013010 73 0 0.0 2.0 0.00 0.00 0.00 81 1007.7
20260509012010 73 129 0.0 2.0 0.00 0.00 0.00 80 1007.6
20260509011010 73 123 1.0 2.0 0.00 0.00 0.00 80 1007.5
20260509010010 74 111 1.0 2.0 0.00 0.00 0.00 79 1007.4
20260509005010 74 107 0.0 2.0 0.00 0.00 0.00 79 1007.4
20260509003010 74 155 1.0 2.0 0.00 0.00 0.00 78 1007.4
20260509002011 74 119 1.0 5.0 0.00 0.00 0.00 77 1007.3
20260509001009 75 147 1.0 3.0 0.00 0.00 0.00 76 1007.2
20260509000010 75 133 2.0 3.0 0.00 0.00 0.00 76 1007.2
20260508235009 76 153 3.0 8.0 0.00 0.00 0.00 75 1007.1
20260508234009 76 159 3.0 8.0 0.00 0.00 0.00 73 1007.1
20260508233009 76 157 2.0 7.0 0.00 0.00 0.00 72 1007.2
20260508232009 77 143 2.0 5.0 0.00 0.00 0.00 72 1007.4
20260508231009 77 109 1.0 3.0 0.00 0.00 0.00 73 1007.6
20260508230009 77 98 1.0 2.0 0.00 0.00 0.00 72 1007.9
20260508225010 76 0 0.0 3.0 0.00 0.00 0.00 73 1008.5
20260508224009 76 0 0.0 3.0 0.00 0.00 0.00 72 1008.6
20260508223010 77 96 0.0 1.0 0.00 0.00 0.00 70 1008.4
20260508222009 77 100 1.0 3.0 0.00 0.00 0.00 70 1008.4
20260508220009 77 93 0.0 3.0 0.00 0.00 0.00 68 1008.4
20260508215011 76 0 0.0 2.0 0.00 0.00 0.00 69 1008.9
20260508214009 77 57 1.0 2.0 0.00 0.00 0.00 67 1008.9
20260508213010 78 85 1.0 4.0 0.00 0.00 0.00 66 1008.7
20260508212010 78 160 1.0 3.0 0.00 0.00 0.00 64 1008.6
20260508211009 78 176 1.0 5.0 0.00 0.00 0.00 65 1008.6
20260508210009 77 178 1.0 3.0 0.00 0.00 0.00 66 1008.6
20260508205011 78 59 2.0 5.0 0.00 0.00 0.00 64 1008.8
20260508204010 79 58 1.0 10.0 0.00 0.00 0.00 66 1008.3
20260508202010 78 107 1.0 5.0 0.00 0.00 0.00 67 1008.9
20260508201010 77 90 1.0 3.0 0.00 0.00 0.00 65 1009.3
20260508200009 77 77 1.0 3.0 0.00 0.00 0.00 64 1009.4
20260508195009 77 79 1.0 5.0 0.00 0.00 0.00 62 1009.6
20260508192009 77 88 1.0 3.0 0.00 0.00 0.00 62 1009.8
20260508191009 77 36 2.0 4.0 0.00 0.00 0.00 62 1010.0
20260508190009 78 44 2.0 7.0 0.00 0.00 0.00 63 1010.2
20260508184009 76 129 1.0 4.0 0.00 0.00 0.00 64 1010.2
20260508183009 76 85 2.0 7.0 0.00 0.00 0.00 64 1010.6
20260508182009 75 124 1.0 6.0 0.00 0.00 0.00 65 1010.7
20260508181009 75 62 1.0 4.0 0.00 0.00 0.00 66 1011.0
20260508180009 74 80 1.0 4.0 0.00 0.00 0.00 67 1011.2
20260508175009 74 86 1.0 7.0 0.00 0.00 0.00 67 1011.2
20260508173010 72 84 1.0 3.0 0.00 0.00 0.00 70 1011.7
20260508172009 72 71 2.0 5.0 0.00 0.00 0.00 69 1011.7
20260508171010 72 121 2.0 5.0 0.00 0.00 0.00 68 1011.9
20260508170009 72 128 2.0 4.0 0.00 0.00 0.00 71 1012.1
20260508165009 71 161 2.0 5.0 0.00 0.00 0.00 71 1012.4
20260508164010 71 111 1.0 4.0 0.00 0.00 0.00 73 1012.6
20260508163009 71 141 1.0 5.0 0.00 0.00 0.00 73 1012.9
20260508162010 70 120 1.0 5.0 0.00 0.00 0.00 75 1013.1
20260508161009 69 109 1.0 2.0 0.00 0.00 0.00 73 1013.4
20260508160009 69 124 1.0 5.0 0.00 0.00 0.00 75 1013.5
20260508155010 69 185 1.0 3.0 0.00 0.00 0.00 74 1013.5
20260508154010 69 62 1.0 7.0 0.00 0.00 0.00 76 1013.5
20260508153009 68 48 1.0 6.0 0.00 0.00 0.00 79 1013.3
20260508150009 68 93 1.0 7.0 0.00 0.00 0.00 78 1013.9
20260508145009 65 90 2.0 6.0 0.00 0.00 0.00 91 1014.0
20260508144009 63 98 1.0 5.0 0.00 0.00 0.00 93 1013.9
20260508143009 63 76 1.0 7.0 0.00 0.00 0.00 93 1013.8
20260508141009 61 57 1.0 7.0 0.00 0.00 0.00 93 1013.8
20260508140009 61 52 1.0 2.0 0.00 0.00 0.00 93 1013.8
20260508135009 61 49 2.0 9.0 0.00 0.00 0.00 93 1013.7
20260508134009 60 59 1.0 8.0 0.00 0.00 0.00 93 1013.1
20260508133010 60 82 1.0 4.0 0.00 0.00 0.00 93 1012.9